Satellite: SO-50
Catalog number: 27607
Epoch time:      10273.81991407
Element set:     282
Inclination:      064.5583 deg
RA of node:       035.6581 deg
Eccentricity:    0.0042176
Arg of perigee:   031.8697 deg
Mean anomaly:     328.4925 deg
Mean motion:   14.71581789 rev/day
Decay rate:     -.00000000 rev/day^2
Epoch rev:           41792
Checksum:              315

Satellite: CO-55
Catalog number: 27844
Epoch time:      10273.45304513
Element set:     947
Inclination:      098.7111 deg
RA of node:       280.9264 deg
Eccentricity:    0.0008991
Arg of perigee:   226.0830 deg
Mean anomaly:     133.9612 deg
Mean motion:   14.20733183 rev/day
Decay rate:        8.6e-07 rev/day^2
Epoch rev:           37603
Checksum:              300

Satellite: CO-57
Catalog number: 27848
Epoch time:      10273.49806136
Element set:     893
Inclination:      098.7157 deg
RA of node:       280.0853 deg
Eccentricity:    0.0008974
Arg of perigee:   230.2027 deg
Mean anomaly:     129.8370 deg
Mean motion:   14.20523487 rev/day
Decay rate:        5.0e-07 rev/day^2
Epoch rev:           37599
Checksum:              333

Satellite: AO-51
Catalog number: 28375
Epoch time:      10273.85425587
Element set:     787
Inclination:      098.0715 deg
RA of node:       261.3865 deg
Eccentricity:    0.0084097
Arg of perigee:   135.9367 deg
Mean anomaly:     224.8560 deg
Mean motion:   14.40700737 rev/day
Decay rate:        3.0e-07 rev/day^2
Epoch rev:           32872
Checksum:              329

Satellite: GENESAT1
Catalog number: 29655
Epoch time:      10216.61700559
Element set:     226
Inclination:      040.0059 deg
RA of node:       067.3006 deg
Eccentricity:    0.0005079
Arg of perigee:   297.8744 deg
Mean anomaly:     064.7087 deg
Mean motion:   16.44862838 rev/day
Decay rate:  1.0637092e-01 rev/day^2
Epoch rev:           20777
Checksum:              320

Satellite: CP3
Catalog number: 31129
Epoch time:      10273.35351265
Element set:     687
Inclination:      097.9308 deg
RA of node:       307.2487 deg
Eccentricity:    0.0101011
Arg of perigee:   267.6752 deg
Mean anomaly:     091.2898 deg
Mean motion:   14.52310532 rev/day
Decay rate:       3.15e-06 rev/day^2
Epoch rev:           18312
Checksum:              285

Satellite: CO-65
Catalog number: 32785
Epoch time:      10273.71639289
Element set:     797
Inclination:      097.8846 deg
RA of node:       337.1231 deg
Eccentricity:    0.0014273
Arg of perigee:   304.9614 deg
Mean anomaly:     055.0238 deg
Mean motion:   14.81724779 rev/day
Decay rate:        8.0e-07 rev/day^2
Epoch rev:           13111
Checksum:              322

Satellite: KKS-1
Catalog number: 33493
Epoch time:      10273.91850248
Element set:     901
Inclination:      098.0977 deg
RA of node:       034.3870 deg
Eccentricity:    0.0020396
Arg of perigee:   155.9435 deg
Mean anomaly:     204.2739 deg
Mean motion:   14.81123644 rev/day
Decay rate:       8.95e-06 rev/day^2
Epoch rev:            9113
Checksum:              307

Satellite: SOHLA-1
Catalog number: 33496
Epoch time:      10273.36131749
Element set:     217
Inclination:      098.0654 deg
RA of node:       021.1143 deg
Eccentricity:    0.0005761
Arg of perigee:   224.0466 deg
Mean anomaly:     136.0295 deg
Mean motion:   14.69519803 rev/day
Decay rate:       2.57e-06 rev/day^2
Epoch rev:            9032
Checksum:              280

Satellite: TISAT-1
Catalog number: 36799
Epoch time:      10273.85089937
Element set:     173
Inclination:      098.1378 deg
RA of node:       334.1378 deg
Eccentricity:    0.0016404
Arg of perigee:   037.7229 deg
Mean anomaly:     322.5111 deg
Mean motion:   14.80181147 rev/day
Decay rate:       4.94e-06 rev/day^2
Epoch rev:            1194
Checksum:              310

Satellite: STUDSAT
Catalog number: 36801
Epoch time:      10272.79888631
Element set:    0077
Inclination:      098.1406 deg
RA of node:       332.9983 deg
Eccentricity:    0.0014892
Arg of perigee:   028.7414 deg
Mean anomaly:     331.4614 deg
Mean motion:   14.79677060 rev/day
Decay rate:      1.262e-05 rev/day^2
Epoch rev:           01178
Checksum:              314

/EX
SB KEPS @ AMSAT  $ORB10273.W
Orbital Elements  10273.WEATHER

HR AMSAT ORBITAL ELEMENTS FOR WEATHER SATELLITES
FROM WA5QGD FORT WORTH,TX September 30, 2010
BID: ORB10273.W
TO ALL RADIO AMATEURS BT

Satellite: NOAA-10
Catalog number: 16969
Epoch time:      10273.50745582
Element set:     222
Inclination:      098.6489 deg
RA of node:       301.4504 deg
Eccentricity:    0.0011428
Arg of perigee:   265.0021 deg
Mean anomaly:     094.9856 deg
Mean motion:   14.27428214 rev/day
Decay rate:       -2.8e-07 rev/day^2
Epoch rev:           25060
Checksum:              291

Satellite: NOAA-11
Catalog number: 19531
Epoch time:      10273.32180365
Element set:     231
Inclination:      098.7666 deg
RA of node:       000.5441 deg
Eccentricity:    0.0010946
Arg of perigee:   205.5476 deg
Mean anomaly:     154.5165 deg
Mean motion:   14.14935792 rev/day
Decay rate:      -1.73e-06 rev/day^2
Epoch rev:           13600
Checksum:              277

Satellite: NOAA-12
Catalog number: 21263
Epoch time:      10273.41538462
Element set:     725
Inclination:      098.7647 deg
RA of node:       286.5607 deg
Eccentricity:    0.0011772
Arg of perigee:   218.7141 deg
Mean anomaly:     141.3197 deg
Mean motion:   14.25656645 rev/day
Decay rate:        5.7e-07 rev/day^2
Epoch rev:             739
Checksum:              306

